{"data":{"norad_id":68466,"intl_designator":"2026-067BC","name":"TRANSPORTER-16 OBJECT BC","alt_names":[],"object_type":"PAYLOAD","status":"ACTIVE","operator":null,"country":"TBD","launch_date":"2026-03-30","launch_site_code":"AFWTR","launch_vehicle":null,"mission":null,"orbit_class":"UNKNOWN","rcs_meters":null,"size_class":null,"mass_kg":null,"dimensions":null,"purposes":[],"wikipedia_slug":null,"has_3d_model":false,"image_url":null,"decayed_at":null,"tle_current":{"epoch":"2026-05-24T18:44:00.949920Z","epoch_age_seconds":87869,"freshness":"FRESH","line1":"1 68466U 26067BC  26144.78056655  .00005780  00000+0  29373-3 0  9996","line2":"2 68466  97.4469 103.4579 0007080 145.8461 214.3230 15.17234587  8235","mean_motion":15.17234587,"eccentricity":0.000708,"inclination_deg":97.4469,"raan_deg":103.4579,"arg_perigee_deg":145.8461,"mean_anomaly_deg":214.323,"bstar":0.00029373,"rev_number":823,"period_min":94.909515795266,"perigee_km":509.32309609622,"apogee_km":519.082649356,"semimajor_km":6892.3398727261,"source":"CELESTRAK","updated_at":"2026-05-25T13:38:07.847433Z"}}}